Wind_Speed
11 11 11 12 8 15 16 12 7 5 4 6 6 7 8 8 8 6 5 5 9 12 15 17 18 18 17 16 18 21 25 26 22 23 23 24 26 25
10 10 9 8 9 13 15 13 12 11 10 8 7 7 10 11 10 10 8 7 10 12 14 16 17 19 18 17 17 19 22 24 23 21 21 20 23 23
10 11 11 11 9 10 11 12 13 13 9 8 9 9 11 12 13 13 13 11 10 12 14 17 18 18 18 17 17 18 19 22 24 22 20 18 19 20
12 13 13 12 12 11 11 12 13 13 13 12 10 11 12 13 15 15 16 16 15 12 14 16 17 20 17 17 17 17 18 20 22 24 21 19 17 17
12 12 12 13 13 14 13 13 14 13 14 14 14 14 14 14 14 17 17 18 21 21 18 17 16 18 21 15 15 15 15 17 18 21 22 22 19 16
12 13 14 14 13 13 14 15 16 16 17 16 16 16 17 18 16 19 19 19 21 25 26 21 19 17 18 21 15 16 16 17 18 19 23 24 22 19
13 14 14 15 15 15 15 15 15 16 17 17 17 18 19 18 21 19 19 20 23 26 24 25 22 18 17 21 19 15 16 16 16 18 21 23 23 22
14 13 13 13 14 15 16 16 16 17 19 19 19 20 21 20 21 20 20 20 20 27 24 21 20 18 14 18 22 19 17 17 17 16 18 19 20 21
18 16 14 14 13 12 13 13 13 14 16 16 17 20 19 20 18 18 18 18 18 19 17 17 18 19 18 16 21 19 20 19 19 19 20 20 21 21
22 20 20 20 18 17 17 16 16 16 17 17 16 16 12 14 13 13 16 17 17 17 16 16 19 18 17 18 19 20 21 23 23 23 22 23 23 24
27 26 26 25 24 24 22 20 20 21 21 21 19 18 17 17 17 15 18 17 17 18 20 15 16 18 21 19 19 22 24 25 24 26 26 26 25 23
32 31 31 29 31 30 26 25 22 24 24 25 22 23 22 23 23 22 23 21 21 18 25 20 19 21 21 24 24 23 25 26 27 26 26 27 28 27
38 36 35 35 35 34 32 29 24 29 28 26 24 25 25 26 27 28 27 27 25 23 26 23 23 25 25 24 28 28 26 25 29 27 28 28 28 28
44 43 42 41 40 39 37 34 33 33 32 28 26 25 28 30 30 28 27 28 28 26 28 28 24 28 29 29 30 30 26 23 27 26 25 28 25 28
49 48 48 47 46 44 42 41 39 38 36 33 29 29 31 33 33 32 31 29 27 26 27 30 31 32 32 32 31 33 33 26 23 27 23 24 25 26
50 51 50 50 49 48 46 44 43 41 41 38 34 33 35 36 36 37 35 34 33 29 30 31 33 33 33 34 33 32 32 30 27 27 26 26 30 30
47 49 49 49 49 50 49 47 46 45 45 44 43 40 39 39 38 39 38 38 37 35 34 35 36 35 33 32 33 35 33 31 33 31 29 30 34 38
49 46 44 48 45 43 45 47 48 47 47 47 48 46 45 43 41 40 41 41 39 38 37 38 38 38 34 29 31 32 31 31 32 31 28 30 33 37
54 50 52 53 45 37 34 38 42 42 44 45 45 46 47 48 47 45 44 44 43 41 40 41 40 36 30 24 25 27 26 27 30 29 32 33 33 32
49 53 57 56 40 39 35 36 37 38 39 41 41 43 44 42 44 45 44 45 45 44 42 40 36 34 30 25 24 25 28 28 28 29 35 33 30 29
58 53 50 53 49 44 43 44 43 42 41 44 43 40 42 43 43 42 43 43 43 43 41 38 37 37 32 27 25 28 31 33 32 33 38 38 33 31
61 56 51 50 54 49 48 47 48 45 46 46 46 42 38 38 40 41 42 41 40 39 38 39 40 43 31 26 30 32 33 35 37 37 43 46 42 38
65 62 55 50 54 54 54 55 53 51 49 49 50 51 48 45 40 39 40 42 43 44 43 43 42 44 43 37 37 38 40 40 41 41 44 44 43 40
Wind_Direction
186 185 184 190 192 188 181 188 190 200 207 187 183 197 211 235 245 270 292 339 345 339 350 355 353 355 359 359 3 5 10 14 20 20 22 20 25 29
185 184 187 170 170 200 193 191 186 193 193 211 205 218 224 239 253 263 288 315 326 334 338 344 347 351 351 348 349 350 1 2 10 18 19 18 21 26
197 192 187 182 181 190 202 201 196 204 201 217 223 233 237 246 254 269 282 294 317 324 325 330 338 341 347 337 338 338 348 351 359 7 11 13 17 22
214 204 199 195 189 189 198 205 207 214 219 226 233 237 250 250 258 267 279 294 298 302 315 323 328 328 338 337 331 334 336 348 352 353 3 6 6 11
226 220 214 214 208 206 206 210 219 223 231 237 245 249 255 258 263 270 279 291 300 305 310 315 319 314 319 328 321 328 329 338 343 347 351 358 1 358
234 232 232 231 226 226 220 220 228 229 235 240 244 251 256 262 264 271 281 289 296 301 305 310 313 308 304 312 317 316 326 326 336 339 342 347 353 353
227 234 236 240 241 239 244 242 243 245 250 252 254 257 261 264 269 275 280 287 294 292 296 305 308 307 301 297 304 307 311 317 325 330 333 344 348 351
230 225 234 240 242 247 251 254 257 261 263 266 269 271 273 275 277 284 286 289 288 290 301 309 312 314 312 293 298 302 306 306 311 318 326 333 341 345
232 231 228 235 238 240 251 256 257 263 268 270 273 275 281 284 287 286 283 282 284 293 304 308 309 314 319 311 304 302 297 300 302 304 309 316 323 327
229 233 236 237 239 242 244 251 255 256 262 270 274 280 287 289 285 283 280 281 291 296 296 299 304 316 321 321 313 310 309 306 305 303 303 307 311 317
237 238 240 244 245 243 247 249 252 261 262 265 268 273 282 282 280 284 283 287 288 293 290 297 299 303 309 313 315 315 317 315 310 306 305 305 308 314
238 239 242 243 249 252 250 251 260 260 263 270 272 273 272 272 276 278 277 278 282 288 289 297 299 299 301 304 307 306 308 308 310 312 308 305 306 309
243 243 244 245 245 249 253 258 258 258 264 266 269 272 269 267 270 273 275 277 278 282 285 290 293 295 297 297 297 298 300 301 303 306 305 307 309 311
244 246 248 247 251 252 254 257 259 260 262 263 263 264 266 267 267 266 269 275 280 284 288 289 286 290 292 292 291 293 293 298 297 297 300 301 302 304
246 247 248 250 251 252 256 258 260 262 265 264 261 261 262 263 267 270 270 270 270 273 277 283 288 287 290 292 295 296 295 289 287 288 288 292 294 295
250 249 250 251 252 254 255 257 261 265 266 264 261 259 260 262 265 268 271 274 273 273 276 278 281 284 288 292 294 291 290 294 292 284 286 286 288 290
250 251 251 251 252 255 256 255 255 258 262 265 265 263 261 263 266 269 270 271 272 274 276 277 279 282 286 289 291 289 291 296 296 297 294 291 290 291
247 248 250 249 248 252 254 255 256 256 258 261 264 264 263 264 263 263 267 271 274 275 277 278 281 282 282 285 287 288 293 292 290 292 298 301 302 305
248 249 250 246 241 244 252 255 256 256 258 261 261 261 263 264 264 262 264 267 269 272 274 276 277 276 276 276 276 286 292 294 294 302 303 307 313 310
256 255 254 259 250 244 246 252 250 252 254 257 259 262 264 264 266 265 264 265 269 273 275 275 274 274 279 281 282 281 285 286 295 300 299 303 303 312
256 260 260 253 251 249 246 247 249 254 258 261 262 264 264 266 265 265 264 265 267 268 271 270 270 267 263 269 278 283 288 293 299 302 302 302 299 302
252 255 257 256 248 244 244 245 251 253 256 260 264 263 264 269 266 264 263 263 261 261 260 264 269 272 273 270 279 280 285 288 291 296 300 301 296 294
254 255 253 253 245 244 248 249 250 253 255 260 261 263 262 265 265 264 263 261 261 263 265 267 268 273 279 280 277 278 280 284 291 294 294 294 291 284
Height
5971 5973 5975 5977 5979 5980 5982 5985 5988 5989 5990 5990 5991 5992 5994 5993 5993 5994 5992 5992 5991 5989 5986 5984 5981 5978 5976 5973 5970 5966 5962 5958 5953 5950 5946 5942 5938 5934
5972 5973 5975 5977 5979 5981 5982 5984 5986 5988 5990 5991 5991 5993 5993 5992 5993 5992 5992 5991 5991 5989 5986 5984 5981 5979 5976 5973 5970 5967 5964 5959 5955 5951 5947 5943 5941 5936
5972 5973 5975 5976 5977 5979 5983 5984 5985 5987 5989 5990 5990 5991 5991 5992 5992 5991 5990 5990 5990 5988 5986 5983 5981 5978 5976 5972 5970 5967 5965 5960 5957 5952 5948 5945 5943 5938
5972 5973 5974 5976 5977 5979 5980 5982 5984 5986 5987 5988 5989 5989 5989 5990 5989 5989 5988 5988 5987 5987 5985 5981 5980 5976 5975 5971 5968 5966 5963 5960 5957 5954 5950 5946 5943 5940
5970 5972 5974 5975 5976 5977 5979 5980 5982 5984 5986 5986 5987 5986 5986 5987 5987 5986 5985 5985 5982 5981 5981 5980 5978 5974 5972 5970 5967 5964 5961 5958 5956 5953 5950 5946 5943 5940
5968 5970 5972 5973 5975 5976 5977 5978 5979 5981 5982 5982 5983 5983 5982 5982 5984 5982 5981 5981 5980 5976 5973 5976 5975 5973 5970 5967 5965 5962 5960 5957 5954 5952 5949 5946 5943 5940
5965 5967 5968 5971 5973 5974 5974 5975 5976 5977 5977 5978 5979 5979 5978 5978 5977 5979 5978 5977 5975 5971 5972 5970 5970 5968 5967 5963 5962 5960 5958 5955 5952 5950 5947 5945 5942 5939
5963 5963 5965 5967 5968 5969 5970 5971 5972 5972 5973 5973 5974 5974 5973 5974 5973 5974 5973 5972 5972 5966 5967 5967 5964 5962 5963 5961 5958 5957 5954 5952 5950 5947 5944 5943 5940 5938
5959 5961 5961 5963 5964 5965 5966 5968 5968 5968 5968 5968 5969 5967 5968 5968 5968 5968 5967 5966 5966 5965 5964 5963 5962 5961 5958 5957 5954 5952 5951 5949 5946 5944 5941 5940 5937 5934
5954 5955 5957 5957 5958 5959 5960 5963 5964 5964 5963 5963 5964 5963 5964 5963 5963 5963 5962 5962 5962 5961 5961 5960 5957 5957 5956 5953 5951 5948 5946 5944 5943 5940 5939 5936 5934 5931
5948 5949 5951 5952 5953 5952 5954 5956 5957 5958 5959 5958 5959 5960 5960 5959 5959 5959 5957 5958 5958 5957 5954 5955 5954 5953 5950 5949 5947 5944 5941 5939 5938 5936 5933 5931 5928 5927
5940 5942 5944 5946 5946 5946 5947 5949 5951 5952 5952 5953 5954 5954 5955 5954 5953 5952 5951 5952 5951 5953 5948 5949 5948 5946 5945 5941 5941 5939 5937 5934 5931 5930 5927 5925 5923 5921
5931 5934 5936 5936 5936 5937 5939 5941 5945 5943 5944 5946 5948 5949 5948 5948 5947 5946 5945 5944 5945 5945 5942 5942 5941 5938 5937 5936 5933 5933 5932 5929 5925 5923 5920 5918 5916 5915
5921 5924 5925 5927 5928 5929 5931 5934 5934 5934 5936 5938 5940 5941 5940 5939 5939 5939 5939 5938 5937 5937 5935 5933 5934 5931 5929 5928 5925 5922 5923 5923 5919 5916 5913 5910 5909 5907
5909 5912 5914 5917 5919 5921 5922 5923 5924 5926 5928 5930 5932 5932 5930 5930 5930 5931 5930 5929 5931 5931 5930 5926 5924 5922 5920 5919 5918 5915 5911 5913 5912 5909 5908 5905 5902 5900
5896 5900 5903 5905 5909 5912 5914 5916 5916 5916 5916 5918 5921 5922 5921 5921 5921 5921 5921 5921 5920 5922 5921 5919 5915 5913 5911 5909 5908 5907 5904 5902 5902 5902 5901 5900 5896 5894
5881 5886 5891 5894 5896 5898 5901 5904 5906 5906 5905 5907 5908 5911 5911 5911 5912 5911 5911 5911 5911 5911 5910 5909 5907 5905 5904 5902 5900 5896 5895 5894 5890 5890 5891 5889 5886 5883
5869 5873 5877 5879 5882 5885 5887 5889 5891 5893 5895 5895 5896 5897 5899 5900 5901 5900 5900 5900 5900 5900 5900 5898 5896 5896 5895 5894 5890 5888 5887 5884 5882 5880 5880 5879 5877 5873
5857 5861 5861 5862 5868 5871 5873 5876 5878 5879 5880 5882 5884 5886 5885 5886 5886 5888 5889 5889 5889 5888 5888 5887 5886 5883 5884 5885 5882 5879 5878 5876 5874 5871 5869 5868 5866 5862
5844 5847 5849 5853 5856 5860 5861 5864 5865 5867 5869 5870 5871 5872 5872 5873 5873 5875 5876 5877 5876 5876 5877 5876 5875 5873 5873 5874 5874 5872 5870 5869 5866 5864 5859 5858 5857 5854
5830 5833 5836 5841 5845 5847 5849 5850 5853 5855 5857 5857 5859 5861 5861 5860 5862 5863 5864 5864 5864 5863 5865 5866 5865 5861 5859 5860 5863 5861 5859 5858 5856 5853 5848 5846 5846 5844
5813 5818 5822 5826 5831 5833 5835 5837 5840 5843 5845 5846 5847 5847 5848 5848 5850 5851 5852 5852 5853 5854 5854 5854 5852 5848 5829 5845 5850 5850 5849 5846 5846 5845 5840 5834 5832 5833
5795 5800 5806 5809 5814 5819 5821 5824 5826 5830 5833 5835 5833 5833 5834 5835 5837 5837 5839 5840 5841 5840 5841 5843 5842 5839 5837 5838 5838 5839 5838 5837 5835 5833 5830 5826 5821 5818